Home   Weather   New York   Past weeks
Flag for USA

Past Weather in New York, New York, USA — Yesterday and Last 2 Weeks

Now
90 °F

Sunny.


Feels Like: 99 °F
Forecast: 91 / 72 °F
Wind: 6 mph from North

Location: New York City - Central Park

Current Time: Jul 19, 2019 at 7:22:34 pm

Latest Report: Jul 19, 2019 at 6:51 pm


Visibility: 10 mi

Pressure: 29.82 "Hg

Humidity: 59%

Dew Point: 74 °F

Location of New YorkLocation

Past Weather in New York — Graph

°F

New York Temperature Yesterday

Maximum temperature yesterday: 79 °F (at 3:34 pm)
Minimum temperature yesterday: 72 °F (at 8:51 pm)
Average temperature yesterday: 75 °F

High & Low Weather Summary for the Past Weeks

 TemperatureHumidityPressure
High92 °F (Jul 17, 2:51 pm)97% (Jul 11, 3:36 pm)30.19 "Hg (Jul 11, 3:36 pm)
Low68 °F (Jul 8, 8:51 am)32% (Jul 14, 5:51 pm)29.70 "Hg (Jul 12, 3:51 am)
Average78 °F69%29.95 "Hg
* Reported Jul 4 5:51 pm — Jul 19 5:51 pm, New York. Weather by CustomWeather, © 2019

Note: Actual official high and low records may vary slightly from our data, if they occured in-between our weather recording intervals... More about our weather records

Advertising

New York Weather History for the Previous 24 Hours

Scroll right to see more
 ConditionsComfort  
Time TempWeatherWind HumidityBarometerVisibility
5:51 pm
Fri, Jul 19
90 °FSunny.N/A61%29.82 "Hg10 mi
4:51 pm89 °FPassing clouds.3 mph65%29.83 "Hg10 mi
3:51 pm88 °FPassing clouds.3 mph67%29.84 "Hg10 mi
2:51 pm89 °FSunny.N/A63%29.85 "Hg10 mi
1:51 pm87 °FSunny.8 mph65%29.87 "Hg10 mi
12:51 pm86 °FPassing clouds.3 mph70%29.89 "Hg9 mi
11:51 am84 °FSunny.6 mph70%29.91 "Hg9 mi
11:03 am80 °FPassing clouds.No wind76%29.94 "Hg9 mi
10:51 am79 °FPartly sunny.No wind79%29.92 "Hg9 mi
9:51 am77 °FOvercast.7 mph82%29.91 "Hg8 mi
8:51 am76 °FOvercast.5 mph85%29.91 "Hg10 mi
7:51 am75 °FOvercast.No wind85%29.91 "Hg10 mi
6:51 am73 °FOvercast.No wind88%29.91 "Hg9 mi
5:51 am73 °FOvercast.No wind88%29.90 "Hg9 mi
4:51 am72 °FOvercast.No wind87%29.90 "Hg10 mi
3:51 am72 °FOvercast.No wind87%29.89 "Hg10 mi
2:51 am71 °FOvercast.No wind90%29.89 "Hg10 mi
2:06 am71 °FOvercast.3 mph90%29.94 "Hg10 mi
1:51 am71 °FLow clouds.3 mph90%29.89 "Hg10 mi
12:51 am72 °FLow clouds.5 mph91%29.90 "Hg9 mi
11:51 pm
Thu, Jul 18
72 °FLow clouds.6 mph91%29.91 "Hg7 mi
10:51 pm72 °FLow clouds.12 mph87%29.91 "Hg10 mi
9:51 pm72 °FLow clouds.10 mph91%29.89 "Hg10 mi
8:51 pm72 °FLow clouds.10 mph87%29.89 "Hg10 mi
7:51 pm73 °FLow clouds.6 mph84%29.89 "Hg10 mi
Weather by CustomWeather, © 2019

See weather overview